Location: Piotrkow Trybunalski
(51.4000°N, 19.6830°E)
Time: 00:37:32
(UTC+02:00)

STRAND 1 - Pass Details

Date: 30 March 2023
Orbit: 767 x 779 km, 98.4° (Epoch: 06 June)

Event Time Altitude Azimuth Distance (km) Brightness Sun altitude
Rises 20:01:25 0° 13° (NNE) 3,255 ? -8.6°
Reaches altitude 10° 20:03:45 10° 11° (N) 2,322 ? -8.9°
Maximum altitude 20:08:50 69° 289° (WNW) 824 ? -9.7°
Drops below altitude 10° 20:13:52 10° 207° (SSW) 2,304 ? -10.4°
Sets 20:16:11 0° 205° (SSW) 3,226 ? -10.7°
